Tracking 25648 objects as of 16-May-2022
HD Live streaming from Space Station
objects crossing your sky now

COSMOS 2251 DEB

Track COSMOS 2251 DEB now!
10-day predictions


NORAD ID: 33906
Int'l Code: 1993-036DK
Perigee: 744.8 km
Apogee: 819.9 km
Inclination: 74.0 °
Period: 100.4 minutes
Semi major axis: 7153 km
RCS: 0.058 m2 (small)
Launch date: June 16, 1993
Source: Commonwealth of Independent States (former USSR) (CIS)
Launch site: PLESETSK MISSILE AND SPACE COMPLEX (PKMTR)

Note: This is SATELLITE DEBRIS
aabbcc
Your satellite tracking list
Your tracking list is empty




NASA's NSSDC Master Catalog

Two Line Element Set (TLE):
1 33906U 93036DK  22135.71665047  .00003699  00000-0  12884-2 0  9993
2 33906  74.0388 231.4077 0052510 230.2639 281.9173 14.34953683691468
Source of the keplerian elements: AFSPC